Regional Weather Roundup
Issued by NWS Kansas City/Pleasant Hill, MO

Home | Current Version | Previous Version | Text Only | Print | Product List | Glossary On
Versions: 1 2 3 4 5 6 7 8 9 10 11 12 13 14 15 16 17 18 19 20 21 22 23 24 25 26 27
000
ASUS43 KEAX 201210
RWREAX

WEATHER ROUNDUP FOR EASTERN KANSAS AND NORTHWEST MISSOURI
NATIONAL WEATHER SERVICE KANSAS CITY/PLEASANT HILL MO
700 AM CDT SUN AUG 20 2017

KSZ040-057-103>105-MOZ028-029-037-043-201300-
...KANSAS CITY METROPOLITAN AREA...

CITY           SKY/WX    TMP DP  RH WIND       PRES   REMARKS
K.C. INTL      TSTM      69  66  90 SE12      29.99F
6HR MIN TEMP:  68; 6HR MAX TEMP:  80; 6HR PCP:  0.76;

K.C. DOWNTOWN  TSTM      71  69  93 E3        30.00F
6HR MIN TEMP:  70; 6HR MAX TEMP:  84; 6HR PCP:  0.42;

LEES SUMMIT    CLOUDY    68  68 100 NE5       30.03F
6HR MIN TEMP:  68; 6HR MAX TEMP:  79; 6HR PCP:  0.10;

OLATHE - IXD   CLOUDY    70  65  84 NE10      30.01S
6HR MIN TEMP:  70; 6HR MAX TEMP:  79;

OLATHE - OJC   CLOUDY    70  65  84 NE12G22   30.01S
6HR MIN TEMP:  70; 6HR MAX TEMP:  77;

LAWRENCE       CLOUDY    68  67  96 E8        29.98F

$$

MOZ001>008-011>017-020>025-030>033-038>040-044>046-053-054-201300-
...NORTHERN AND CENTRAL MISSOURI...

CITY           SKY/WX    TMP DP  RH WIND       PRES   REMARKS
ST. JOSEPH     TSTM      68  68 100 SW8       30.01R
6HR MIN TEMP:  68; 6HR MAX TEMP:  77; 6HR PCP:  0.31;

MOSBY          TSTM      70  64  83 S5        30.01S
WARRENSBURG    TSTM      70  64  83 N14G26    30.04R
WHITEMAN AFB   TSTM      73  73 100 N24G35    30.02R
6HR MIN TEMP:  73; 6HR MAX TEMP:  75;

CLINTON        PTCLDY    73  73 100 SE3       29.98R
SEDALIA        CLOUDY    77  75  93 S6        30.00R
6HR MIN TEMP:  71; 6HR MAX TEMP:  78;

WARSAW         NOT AVBL
CHILLICOTHE      N/A     69  69 100 SE7       30.05R
6HR MIN TEMP:  69; 6HR MAX TEMP:  75; 6HR PCP:  0.41;

KIRKSVILLE     TSTM      69  66  90 NW12G22   30.05R FOG
6HR MIN TEMP:  61; 6HR MAX TEMP:  73; 6HR PCP:  0.05;


$$

MOZ041-047>049-056>058-063>065-088>090-097-201300-
...EASTERN AND SOUTHERN MISSOURI...

CITY           SKY/WX    TMP DP  RH WIND       PRES   REMARKS
ST. LOUIS INTL MOCLDY    75  70  84 CALM      30.00R
6HR MIN TEMP:  74; 6HR MAX TEMP:  79;

SPIRIT OF STL  MOCLDY    69  69 100 SW3       29.98S
COLUMBIA       CLOUDY    71  70  96 SE5       30.00R
JEFFERSON CITY PTCLDY    70  70 100 E3        29.99R
ROLLA          CLOUDY    72  71  97 S8        30.02R
OSAGE BEACH    CLOUDY    72  71  97 CALM      30.01R
SPRINGFIELD    PTCLDY    75  74  96 S6        30.00R
BRANSON        PTCLDY    75  73  94 S6        30.03S
JOPLIN         CLEAR     80  76  87 SW8       29.98R
WEST PLAINS    CLOUDY    75  71  87 SW3       30.04R

$$

IAZ060-094-KSZ022-034>040-054-083-096-NEZ052-066-093-201300-
...KANSAS...SOUTHEAST NEBRASKA AND IOWA...

CITY           SKY/WX    TMP DP  RH WIND       PRES   REMARKS
TOPEKA         CLOUDY    69  68  96 E7        29.97S
6HR MIN TEMP:  69; 6HR MAX TEMP:  82; 6HR PCP:  0.15;

MANHATTAN      CLEAR     69  66  90 E5        29.93S
EMPORIA        PTCLDY    68  63  84 N10       29.97R
CHANUTE        CLEAR     70  66  87 SE7       29.95R
WICHITA        PTCLDY    72  69  90 S9        29.93S
OMAHA          CLOUDY    70  65  84 S3        29.91R
LINCOLN        MOCLDY    66  63  90 S9        29.88R
FALLS CITY       N/A     68  66  93 SE9       29.97R THUNDER
LAMONI         CLOUDY    68  67  96 S6        29.96R
DES MOINES     LGT RAIN  70  67  90 SE8       29.93F

$$





USA.gov is the U.S. government's official web portal to all federal, state and local government web resources and services.